Tracking 19709 objects as of 18-Jun-2019
HD Live streaming from Space Station
objects crossing your sky now

DMSP 5D-2 F11 DEB

Track DMSP 5D-2 F11 DEB now!
10-day predictions


NORAD ID: 28327
Int'l Code: 1991-082AQ
Perigee: 791.3 km
Apogee: 830.2 km
Inclination: 98.8 °
Period: 101.0 minutes
Semi major axis: 7181 km
RCS: 0.0132 m2 (small)
Launch date: November 28, 1991
Source: United States (US)
Launch site: AIR FORCE WESTERN TEST RANGE (AFWTR)

Note: This is SATELLITE DEBRIS
aabbcc
Your satellite tracking list
Your tracking list is empty




NASA's NSSDC Master Catalog

Two Line Element Set (TLE):
1 28327U 91082AQ  19168.33232731  .00000606  00000-0  26969-3 0  9998
2 28327  98.8458 195.3222 0027065 287.3438 129.1275 14.26443263782903
Source of the keplerian elements: AFSPC